Regional Weather Roundup
Issued by NWS

Home | Current Version | Previous Version | Text Only | Print | Product List | Glossary Off
Versions: 1 2 3 4 5 6 7 8 9 10 11 12 13 14 15 16 17 18 19 20 21 22 23 24 25 26 27

000
ASUS45 KBOU 230007
RWRCO

WEATHER ROUNDUP FOR COLORADO
NATIONAL WEATHER SERVICE DENVER/BOULDER CO
600 PM MDT SAT APR 22 2017

NOTE: "FAIR" INDICATES FEW OR NO CLOUDS BELOW 12000 FEET WITH NO
SIGNIFICANT WEATHER AND/OR OBSTRUCTIONS TO VISIBILITY.

COZ001>005-013-030-031-230100-
...NORTHWEST COLORADO...

CITY           SKY/WX    TMP DP  RH WIND       PRES   REMARKS
CRAIG          FAIR      58  18  21 S9        30.14F
HAYDEN         FAIR      55  18  22 E5        30.15S
MEEKER         FAIR      58  20  22 N3        30.14F
MOUNT WERNER   NOT AVBL
STEAMBOAT SPGS FAIR      54  19  25 S3        30.16F
WALDEN           N/A     50  19  29 SE7       30.21F
$$

COZ006>008-011-230100-
...WEST CENTRAL VALLEYS...

CITY           SKY/WX    TMP DP  RH WIND       PRES   REMARKS
GRAND JUNCTION FAIR      65  15  14 MISG      30.09S
MONTROSE       FAIR      61  13  15 W5        30.13F
EAGLE          SUNNY     57  19  23 NE7       30.17F
RIFLE          FAIR      62  17  17 CALM      30.12S
DELTA          FAIR      66  12  12 CALM      30.11F
NUCLA          FAIR      63  14  15 NW7       30.15S
$$

COZ017>023-064>068-230100-
...SOUTHWEST COLORADO...

CITY           SKY/WX    TMP DP  RH WIND       PRES   REMARKS
DURANGO        FAIR      62  14  15 W8        30.13S
CORTEZ         FAIR      65  16  15 VRB7      30.11S
PAGOSA SPRINGS FAIR      60   9  13 W9        30.17S
TELLURIDE      FAIR      55  15  21 W12       30.23S
WOLF CREEK PAS FAIR      36  18  48 SW14      30.38R
$$

COZ009-010-012-014-032>034-037-058>063-230100-
...CENTRAL COLORADO...

CITY           SKY/WX    TMP DP  RH WIND       PRES   REMARKS
ASPEN          FAIR      54  16  22 N8        30.16F
BUENA VISTA    FAIR      52  12  20 S9        30.20F
COPPER MTN     FAIR      34   9  35 S5        30.33S WCI  30
BERTHOUD PASS  FAIR      23  12  63 SE12G22   30.34S WCI  12
COTTONWOOD PAS FAIR      48  10  21 E8G16     30.27S
GUNNISON       FAIR      56  15  20 W6        30.16F
KREMMLING      FAIR      59  18  20 CALM      30.18F
LEADVILLE      FAIR      43  11  27 S10       30.23F
MONARCH PASS   FAIR      32  18  55 NE13      30.43S WCI  22
SALIDA         FAIR      52  25  35 SE18G25   30.29S
SUNLIGHT       FAIR      36  21  55 CALM      30.32F
WILKERSON PASS FAIR      32  19  59 CALM      30.36S
$$

COZ069>075-230100-
...SAN LUIS VALLEY/SANGRE DE CRISTO MOUNTAINS...

CITY           SKY/WX    TMP DP  RH WIND       PRES   REMARKS
ALAMOSA        FAIR      54  25  32 E16G23    30.16S
LA VETA PASS   CLOUDY    30  28  93 NE10      30.42S WCI  21
SAGUACHE       FAIR      54  18  24 E10G17    30.19S
$$

COZ035-036-038>040-230100-
...NORTHERN COLORADO FRONT RANGE...

CITY           SKY/WX    TMP DP  RH WIND       PRES   REMARKS
DENVER INTL AP FAIR      55  24  30 SE3       30.21F
DMNS CITY PARK   N/A     56  23  27 SW2G10    30.20F
AURORA         MOSUNNY   55  24  30 SE6       30.22F
FRONT RANGE AP MOSUNNY   57  28  33 E12G20    30.22F
ERIE MUNI ARPT FAIR      57  24  27 E3        30.21S
BOULDER MUN AP FAIR      55  28  35 E6        30.20F
CENTENNIAL     FAIR      53  24  32 CALM      30.22F
BROOMFIELD     MOSUNNY   55  27  33 SE5       30.22F
FORT COLLINS   FAIR      57  29  34 S8        30.21F
LONGMONT       FAIR      59  28  30 E6        30.22S
$$

COZ041-046-047-076>085-087-088-230100-
...PIKES PEAK/PALMER DIVIDE AND SOUTHERN FOOTHILLS...

CITY           SKY/WX    TMP DP  RH WIND       PRES   REMARKS
COLO. SPRINGS  FAIR      50  32  50 E6        30.26F
A. F. ACADEMY  MOSUNNY   46  31  57 S8        30.24F
SCHRIEVER AFB  FAIR      48  30  49 SW3       30.26F
ELLICOTT       CLOUDY   N/A N/A N/A SE8       30.25F
FALCON         PTSUNNY   49  31  49 CALM      30.28S
FORT CARSON    FAIR      50  32  48 SE6       30.25F
LIMON          FAIR      52  29  41 S7        30.24F
MONUMENT HILL  FAIR      45  30  57 SE8       30.27F
TRINIDAD       FAIR      51  28  41 NE7       30.27S
$$

COZ042>045-048>051-090-091-230100-
...NORTHEAST COLORADO...

CITY           SKY/WX    TMP DP  RH WIND       PRES   REMARKS
GREELEY ARPT   FAIR      58  32  37 SE13      30.21F
AKRON          FAIR      54  28  36 S5        30.24S
BURLINGTON     NOT AVBL
WRAY           NOT AVBL
STERLING       FAIR      55  32  41 CALM      30.22F
HOLYOKE        FAIR      61  32  33 S6        30.23F
FORT MORGAN    FAIR      56  28  33 S6        30.24F
$$

COZ086-089-092>099-230100-
...SOUTHEAST COLORADO...

CITY           SKY/WX    TMP DP  RH WIND       PRES   REMARKS
PUEBLO         FAIR      54  33  45 VRB6      30.24F
LA JUNTA       FAIR      57  33  40 VRB3      30.24F
LAMAR          FAIR      57  32  38 NW5       30.23F
SPRINGFIELD      N/A     52  29  41 N10       30.25F
$$




USA.gov is the U.S. government's official web portal to all federal, state and local government web resources and services.